Temp
63 62 62 62 62 61 61 61 62 62 62 62 62 62 62 62 61 59 65 77 76 75 76 79 78 78 75 71 74 73 61 56 60 65 63 71 67 79 80 79 79 83 82 83 84
62 62 62 62 62 61 61 61 61 61 61 62 62 62 62 61 58 65 77 76 76 78 77 74 76 77 70 70 73 68 58 60 73 73 65 69 70 73 76 76 77 79 85 85 84
62 62 62 62 62 61 61 61 61 61 62 62 62 62 61 61 61 75 79 77 76 78 77 76 75 72 63 66 70 67 64 71 75 76 75 74 74 83 77 73 78 78 81 84 83
61 62 62 61 61 61 61 61 61 62 62 62 62 62 62 60 60 79 77 76 76 76 76 75 72 65 65 64 72 69 73 73 74 78 76 75 77 77 77 76 80 82 85 84 83
61 61 61 61 61 61 61 61 61 61 61 61 62 62 61 63 70 82 77 77 77 77 74 72 69 65 62 70 73 69 68 74 75 69 68 74 71 72 74 78 80 84 85 80 76
60 60 60 61 61 61 61 60 60 60 61 62 62 62 62 63 83 81 81 77 79 74 76 75 73 75 72 68 66 70 72 70 66 68 69 71 68 72 77 80 79 81 80 77 77
59 59 60 60 61 61 61 60 59 60 62 63 63 67 64 71 85 80 81 79 80 84 79 80 79 75 72 73 73 72 64 66 66 67 67 72 66 69 77 78 76 77 77 76 76
59 59 59 60 60 61 61 61 60 60 63 63 64 64 66 84 82 79 78 83 85 84 83 85 81 74 70 72 75 71 66 58 65 69 71 70 60 69 78 76 74 77 77 75 74
59 58 58 59 60 60 60 60 61 62 64 64 61 61 68 85 85 88 85 85 85 86 86 95 80 71 74 63 60 62 57 58 64 71 73 66 62 72 78 77 76 75 74 74 72
59 58 58 59 59 59 59 60 63 62 64 70 74 65 74 80 88 91 88 89 86 81 81 76 67 64 61 59 52 54 58 60 62 69 70 64 66 71 74 78 74 73 73 72 72
59 58 58 58 59 59 57 68 69 67 66 71 75 75 82 89 92 88 90 85 84 77 64 68 62 55 62 64 66 64 62 61 69 72 67 66 69 72 77 75 72 72 71 70 70
59 59 58 58 58 59 57 68 71 76 64 79 80 80 86 87 79 85 88 77 73 64 66 63 57 68 70 70 67 66 63 61 70 73 68 64 69 74 74 75 75 73 72 70 68
57 58 58 57 58 63 65 73 77 74 62 72 79 79 80 83 79 80 84 78 70 63 64 60 68 75 73 70 67 63 62 62 65 69 69 66 59 64 71 75 77 76 75 72 69
57 57 57 56 63 59 67 77 79 72 54 67 75 80 82 82 77 89 87 81 70 68 67 64 73 74 72 69 70 59 70 71 69 63 56 64 50 59 65 70 73 74 71 71 70
56 57 57 56 53 57 72 73 77 70 45 74 77 87 83 78 78 80 87 78 71 71 67 67 69 68 68 72 75 68 71 67 67 58 55 56 52 58 63 63 66 66 69 70 70
56 56 56 57 54 61 68 70 68 55 46 70 79 75 73 76 79 80 79 81 79 69 70 70 76 75 74 77 74 74 67 61 57 53 47 53 53 54 58 63 73 67 70 70 70
55 56 54 61 57 64 67 66 53 44 69 69 72 75 72 71 74 75 72 67 63 56 56 65 69 74 78 68 71 66 54 45 45 45 46 55 53 56 63 67 72 68 69 70 71
53 53 52 60 56 61 63 59 45 61 65 76 73 74 68 72 72 73 69 64 67 63 56 55 55 67 75 68 64 60 57 46 41 41 47 57 50 57 67 69 71 73 71 70 69
52 49 54 59 62 63 57 46 50 59 71 68 71 66 66 71 70 68 65 64 69 66 58 53 58 72 76 76 73 61 55 59 50 46 45 49 56 64 67 68 68 69 69 68 68
49 46 50 64 67 61 52 47 55 68 71 70 59 64 59 63 63 61 62 70 70 72 68 62 55 68 74 74 70 67 68 54 47 40 38 46 50 52 59 64 66 65 65 66 68
47 50 62 67 67 56 46 49 61 70 71 66 62 61 63 60 61 60 63 70 72 73 68 63 58 61 67 61 60 61 56 53 51 47 41 39 47 59 62 63 65 66 68 68 67
47 46 65 69 55 51 49 58 61 68 71 68 67 65 63 62 59 60 63 66 74 72 64 65 56 54 60 68 73 66 60 55 45 46 45 44 46 64 65 66 66 66 68 68 70
42 47 63 65 48 48 55 63 66 66 66 66 65 67 68 62 54 60 64 73 74 68 61 60 51 46 53 57 63 60 63 58 51 47 46 43 46 65 65 66 66 66 67 69 70
43 42 52 54 54 53 52 56 58 68 67 69 66 67 63 58 58 58 61 70 72 71 66 62 51 50 49 54 57 56 61 61 54 44 47 48 53 61 64 64 65 65 67 69 70
43 43 48 45 50 49 49 56 57 57 64 63 61 62 60 54 55 56 60 64 69 67 63 60 53 54 57 61 61 61 61 61 57 55 50 55 53 61 63 63 66 67 66 67 64
42 42 46 45 49 50 49 51 56 59 59 58 57 63 60 52 57 56 57 54 57 61 56 55 51 50 51 61 61 59 62 61 61 61 57 58 55 64 66 63 64 66 65 64 62
46 46 45 44 46 46 48 54 57 58 61 63 61 60 57 59 61 61 59 59 58 55 56 54 51 47 43 58 57 49 57 61 62 61 59 54 59 64 63 67 65 61 64 62 62
MSLP
1019.29 1018.88 1018.36 1017.80 1017.37 1016.92 1016.59 1016.25 1016.00 1015.79 1015.58 1015.34 1015.07 1014.85 1014.62 1014.28 1013.57 1013.57 1012.58 1010.06 1009.94 1009.85 1009.91 1009.80 1009.81 1009.87 1010.04 1010.13 1009.64 1009.84 1010.95 1012.07 1011.78 1012.21 1013.14 1012.59 1012.71 1011.45 1011.67 1011.49 1011.77 1011.61 1011.89 1012.37 1013.56
1019.27 1018.81 1018.26 1017.79 1017.30 1016.81 1016.38 1016.02 1015.76 1015.59 1015.35 1015.13 1014.92 1014.64 1014.44 1014.12 1013.69 1012.28 1009.34 1009.21 1009.40 1009.67 1009.81 1009.88 1009.75 1009.92 1010.06 1009.67 1009.21 1009.72 1011.41 1011.31 1010.92 1011.00 1012.83 1013.08 1012.35 1011.53 1011.61 1012.17 1012.09 1012.10 1012.19 1012.58 1013.69
1019.34 1018.80 1018.26 1017.84 1017.21 1016.72 1016.24 1015.87 1015.53 1015.32 1015.10 1014.86 1014.68 1014.50 1014.24 1014.04 1013.28 1009.90 1008.10 1008.55 1009.04 1009.33 1009.57 1009.76 1009.92 1010.02 1009.93 1009.32 1009.17 1009.49 1010.95 1010.90 1011.21 1010.88 1010.81 1012.07 1012.14 1010.96 1010.56 1010.88 1011.82 1012.11 1012.01 1012.72 1013.83
1019.40 1018.79 1018.17 1017.80 1017.10 1016.55 1016.06 1015.63 1015.28 1015.03 1014.70 1014.54 1014.48 1014.30 1014.02 1013.94 1011.92 1008.54 1008.06 1008.51 1008.95 1009.18 1009.51 1009.54 1009.81 1009.76 1009.63 1009.25 1008.58 1009.71 1010.09 1010.54 1011.52 1010.82 1011.00 1011.22 1011.49 1011.27 1010.42 1010.54 1010.90 1011.97 1012.10 1012.53 1013.19
1019.47 1018.84 1018.18 1017.58 1016.92 1016.23 1015.77 1015.37 1015.02 1014.66 1014.36 1014.33 1014.41 1014.21 1013.98 1013.00 1010.26 1007.98 1008.35 1008.63 1008.88 1009.08 1009.21 1009.55 1009.51 1009.46 1009.26 1008.73 1008.44 1009.27 1010.57 1011.06 1011.03 1011.50 1011.59 1011.66 1011.96 1011.93 1011.43 1010.93 1011.50 1012.08 1012.59 1013.08 1013.68
1019.59 1018.86 1018.17 1017.56 1016.79 1015.98 1015.37 1015.01 1014.77 1014.41 1014.15 1014.11 1014.31 1014.35 1013.85 1011.56 1008.00 1008.00 1008.37 1008.81 1008.84 1008.99 1008.97 1009.11 1009.09 1008.83 1008.85 1008.58 1008.53 1009.29 1009.91 1011.14 1012.12 1011.97 1012.28 1011.93 1012.46 1012.26 1011.65 1011.26 1011.99 1012.25 1013.00 1013.75 1014.09
1019.73 1018.95 1018.09 1017.43 1016.53 1015.75 1015.08 1014.48 1014.26 1014.08 1013.91 1013.82 1014.11 1014.13 1013.23 1009.70 1007.66 1007.95 1008.12 1008.29 1008.11 1008.35 1008.65 1008.29 1008.39 1008.39 1008.19 1008.32 1008.27 1009.85 1011.26 1012.58 1012.99 1012.38 1012.68 1012.19 1013.06 1012.22 1012.16 1012.36 1012.38 1012.84 1013.56 1014.21 1014.60
1019.72 1018.99 1018.07 1017.13 1016.27 1015.52 1014.65 1013.93 1013.65 1013.59 1013.62 1013.72 1014.10 1013.93 1011.61 1007.95 1007.81 1008.30 1008.16 1007.88 1007.69 1007.95 1008.19 1007.60 1007.52 1007.66 1008.08 1008.27 1008.20 1009.16 1010.66 1012.63 1012.87 1012.58 1012.26 1011.63 1012.83 1012.28 1011.22 1012.13 1012.91 1013.08 1013.68 1014.33 1014.91
1019.86 1019.00 1018.01 1016.86 1016.11 1015.37 1014.22 1013.33 1012.91 1013.18 1013.41 1013.73 1014.03 1013.47 1010.49 1007.60 1007.76 1007.26 1007.39 1007.52 1007.45 1007.39 1007.32 1007.04 1007.31 1008.16 1008.43 1009.24 1009.72 1009.81 1010.20 1010.51 1011.69 1011.12 1010.94 1011.87 1012.33 1011.76 1011.17 1011.87 1012.73 1013.02 1013.63 1014.34 1015.07
1020.08 1018.93 1017.82 1016.75 1016.06 1015.18 1013.64 1012.82 1012.98 1013.29 1013.66 1013.60 1013.08 1012.84 1009.63 1008.05 1006.95 1006.67 1006.72 1007.04 1007.40 1007.42 1007.79 1007.88 1008.74 1009.26 1009.73 1010.17 1010.68 1010.57 1010.56 1010.21 1010.22 1010.40 1010.79 1011.44 1011.21 1011.36 1011.42 1011.73 1012.19 1012.71 1013.39 1014.05 1014.81
1019.97 1019.17 1018.18 1016.83 1015.91 1014.96 1013.72 1012.61 1013.27 1013.00 1012.54 1012.17 1011.39 1010.57 1008.80 1007.61 1006.69 1006.46 1006.47 1006.81 1007.15 1007.78 1008.50 1008.75 1009.76 1010.18 1009.99 1009.89 1009.80 1009.96 1009.94 1009.81 1008.96 1007.92 1008.94 1009.81 1010.26 1010.63 1011.00 1011.62 1012.05 1012.42 1012.96 1013.70 1014.57
1020.20 1019.24 1018.06 1016.85 1015.46 1014.53 1014.44 1013.99 1013.43 1013.36 1011.20 1010.01 1009.38 1008.92 1007.98 1007.73 1007.64 1006.68 1006.39 1007.22 1007.49 1008.28 1008.83 1009.54 1009.74 1009.51 1009.47 1009.45 1009.65 1009.54 1009.44 1009.07 1008.32 1007.88 1008.38 1009.90 1010.11 1010.04 1010.24 1010.09 1010.43 1011.38 1012.47 1013.59 1014.77
1020.20 1019.43 1018.25 1017.00 1014.94 1014.33 1014.52 1013.21 1012.35 1012.05 1011.65 1008.61 1007.76 1007.47 1007.01 1007.12 1007.03 1006.59 1006.66 1007.15 1007.85 1008.57 1009.02 1009.48 1008.57 1008.52 1008.97 1008.80 1009.18 1008.99 1008.71 1008.60 1008.34 1008.22 1008.70 1009.79 1010.78 1010.89 1010.64 1010.66 1010.74 1011.18 1012.04 1012.99 1013.76
1020.25 1019.57 1018.72 1017.12 1015.27 1015.76 1013.88 1012.42 1011.93 1011.98 1011.71 1008.71 1006.93 1005.89 1006.14 1006.54 1006.24 1005.65 1006.21 1007.13 1008.00 1008.36 1008.78 1009.02 1007.85 1008.24 1008.03 1008.02 1008.17 1008.12 1007.75 1008.14 1008.28 1008.98 1009.68 1009.71 1011.30 1010.91 1010.43 1010.51 1010.63 1011.36 1012.33 1012.98 1013.97
1020.08 1019.41 1018.92 1018.53 1017.87 1016.44 1013.73 1012.84 1012.23 1012.05 1011.21 1007.36 1005.99 1004.59 1005.18 1006.12 1005.67 1005.58 1005.80 1006.72 1007.39 1008.05 1008.68 1008.21 1007.84 1007.54 1007.11 1006.61 1006.65 1007.12 1007.31 1007.98 1008.54 1009.70 1010.34 1010.83 1011.28 1010.14 1009.84 1010.60 1010.59 1011.20 1011.83 1012.67 1013.27
1019.96 1019.32 1019.05 1018.16 1017.97 1015.21 1014.15 1013.16 1012.57 1012.69 1010.06 1006.96 1005.43 1005.14 1005.82 1005.90 1005.69 1005.81 1006.04 1006.41 1006.91 1007.76 1008.18 1007.96 1007.00 1006.68 1005.91 1005.67 1006.01 1006.82 1007.93 1009.04 1009.95 1010.96 1011.98 1011.46 1011.36 1010.69 1009.88 1009.43 1009.20 1010.41 1011.31 1012.22 1013.25
1019.49 1018.64 1018.71 1017.96 1016.00 1014.34 1014.22 1013.75 1013.67 1012.56 1009.12 1007.34 1006.19 1005.64 1005.80 1006.13 1006.22 1006.31 1006.59 1007.07 1007.66 1008.34 1008.72 1008.09 1006.98 1005.89 1005.39 1005.92 1006.42 1007.36 1009.28 1011.09 1012.32 1012.72 1012.56 1011.51 1011.39 1010.42 1009.10 1008.09 1007.88 1008.79 1010.56 1011.90 1012.81
1019.16 1018.04 1016.62 1015.58 1014.79 1015.02 1014.91 1014.74 1014.11 1011.28 1009.52 1007.80 1007.13 1006.22 1006.24 1006.22 1006.30 1006.55 1006.97 1007.61 1007.74 1008.31 1009.09 1009.00 1007.68 1006.17 1005.56 1005.95 1006.79 1007.89 1009.35 1011.31 1012.66 1013.66 1013.05 1011.62 1010.90 1010.24 1009.55 1008.55 1007.18 1008.38 1009.70 1011.59 1012.98
1018.85 1017.39 1016.31 1013.34 1014.10 1014.97 1015.33 1015.30 1013.40 1011.36 1009.66 1008.83 1007.37 1006.94 1006.84 1006.51 1006.44 1006.81 1007.16 1007.53 1007.31 1007.70 1008.72 1008.68 1007.76 1006.24 1005.72 1005.63 1006.25 1007.94 1009.38 1010.46 1012.09 1013.56 1013.83 1012.53 1011.08 1010.27 1009.69 1009.20 1008.94 1009.67 1010.64 1011.59 1012.50
1019.56 1018.24 1015.52 1012.76 1013.30 1014.36 1015.44 1014.80 1012.99 1011.04 1010.07 1009.46 1009.22 1008.16 1008.08 1007.55 1007.45 1007.62 1007.13 1006.55 1006.69 1006.64 1006.86 1008.03 1008.19 1006.73 1005.89 1005.48 1006.16 1006.98 1008.55 1010.58 1012.55 1013.99 1014.33 1013.24 1011.93 1011.03 1010.44 1010.00 1010.09 1010.64 1011.28 1012.13 1012.44
1019.33 1017.92 1013.01 1012.27 1012.88 1014.40 1014.95 1013.79 1012.15 1010.76 1010.50 1009.90 1009.33 1008.97 1008.36 1008.05 1007.94 1008.01 1007.44 1006.69 1006.51 1005.92 1006.50 1007.38 1008.04 1007.50 1006.71 1006.82 1007.00 1007.64 1008.80 1010.66 1012.42 1013.62 1014.33 1013.91 1012.43 1010.40 1010.02 1009.92 1010.13 1010.31 1010.57 1011.11 1011.77
1019.62 1017.93 1012.62 1012.35 1013.53 1013.98 1014.05 1012.85 1011.98 1010.87 1010.38 1010.07 1009.18 1008.73 1008.16 1008.00 1008.18 1008.18 1007.70 1007.15 1006.52 1006.34 1006.70 1006.93 1007.83 1008.28 1007.63 1006.88 1006.83 1007.67 1008.90 1010.00 1012.51 1013.48 1013.85 1013.36 1011.77 1009.88 1009.52 1009.53 1009.40 1009.62 1009.86 1010.25 1010.52
1020.46 1017.93 1013.14 1012.66 1013.68 1014.13 1013.45 1012.65 1011.79 1010.94 1010.33 1009.80 1009.12 1008.64 1008.43 1008.02 1008.30 1007.79 1007.26 1006.72 1006.46 1006.65 1006.92 1007.34 1008.37 1008.76 1008.41 1008.24 1007.55 1007.71 1008.41 1009.49 1011.25 1012.36 1012.99 1013.07 1011.68 1009.75 1009.34 1009.15 1009.12 1009.30 1009.37 1009.60 1009.99
1021.10 1019.09 1015.42 1014.03 1013.77 1014.01 1013.78 1012.86 1011.94 1010.66 1010.02 1009.53 1008.98 1008.46 1008.37 1008.02 1007.87 1007.77 1007.35 1006.83 1006.71 1006.93 1007.04 1007.64 1009.04 1009.41 1008.97 1008.29 1008.02 1008.14 1008.22 1008.92 1010.47 1011.92 1012.07 1011.79 1010.90 1010.05 1009.31 1008.97 1008.76 1008.92 1008.64 1009.00 1009.57
1021.32 1019.56 1017.85 1016.33 1015.21 1014.86 1014.21 1012.95 1011.98 1011.27 1010.41 1009.78 1009.10 1008.84 1008.56 1008.23 1008.01 1007.95 1007.61 1007.36 1007.15 1007.28 1007.71 1008.17 1009.36 1009.40 1009.08 1008.61 1008.21 1007.93 1008.00 1008.51 1009.32 1009.90 1010.51 1010.22 1009.92 1008.91 1007.97 1007.89 1007.94 1007.84 1008.37 1009.19 1010.18
1021.53 1020.23 1018.97 1017.74 1016.45 1015.44 1014.29 1013.31 1012.33 1011.70 1011.11 1009.98 1009.84 1008.89 1008.71 1008.72 1008.20 1007.97 1007.82 1007.83 1007.93 1007.90 1008.37 1009.15 1009.77 1010.06 1009.95 1009.18 1008.60 1007.95 1007.67 1008.01 1008.25 1008.52 1008.52 1008.61 1008.53 1007.52 1006.97 1007.33 1007.61 1008.05 1008.93 1009.47 1010.30
1021.10 1020.56 1019.92 1018.26 1017.09 1016.23 1014.70 1013.52 1012.68 1012.32 1010.94 1010.20 1010.04 1009.31 1008.76 1008.53 1008.22 1008.08 1008.31 1008.39 1008.52 1008.71 1009.23 1009.82 1010.28 1010.95 1010.59 1009.81 1008.98 1007.94 1007.41 1007.21 1007.27 1007.19 1007.49 1007.74 1007.40 1006.90 1006.99 1006.65 1007.18 1007.94 1008.82 1009.48 1010.09
Wind_Speed
18 17 16 16 15 13 13 12 11 10 9 9 9 10 10 11 13 3 6 11 7 4 3 4 2 4 3 4 4 5 4 5 3 9 2 2 1 3 2 8 3 2 7 8 21
18 18 17 17 16 15 13 12 11 9 7 7 8 8 8 10 3 6 12 8 5 4 2 2 6 6 3 4 2 4 5 4 7 17 8 3 4 1 6 7 6 7 11 10 20
19 18 18 17 17 16 14 11 9 8 5 6 7 8 8 6 3 8 7 14 8 5 3 1 2 2 3 1 4 3 5 6 10 19 18 11 7 8 14 9 5 16 17 12 17
20 20 19 18 17 16 14 12 9 7 4 5 7 8 8 1 1 4 6 9 7 3 1 2 4 2 5 2 5 7 14 7 13 17 18 19 10 10 7 5 10 6 11 10 15
21 21 20 20 18 17 15 13 10 8 4 4 6 6 3 2 9 2 7 5 2 2 2 2 4 1 3 6 6 14 4 7 9 6 9 10 8 2 4 6 1 5 7 5 8
21 22 22 21 19 19 18 15 10 8 3 1 3 4 2 4 4 9 8 3 6 3 1 6 6 8 6 3 1 3 12 11 3 9 5 9 2 2 8 8 8 6 7 8 9
22 23 23 23 22 21 20 18 11 8 4 3 2 2 1 13 3 8 11 7 4 6 3 5 5 2 2 9 3 18 15 6 4 5 6 10 6 5 6 4 4 5 12 11 8
23 24 24 25 24 23 23 21 16 7 5 4 3 1 8 5 4 4 4 5 7 6 6 12 2 1 2 2 9 6 11 8 12 9 11 7 7 8 13 12 8 13 12 12 7
24 25 26 27 26 25 26 24 12 6 5 7 2 1 10 12 5 11 7 6 4 7 6 5 5 2 7 4 6 8 2 2 8 17 13 4 8 14 10 14 16 15 13 12 10
24 26 28 28 28 26 30 13 5 10 4 4 4 3 6 3 5 5 5 6 5 3 6 4 7 4 5 6 3 2 4 6 6 12 13 14 10 19 16 20 17 15 13 13 12
25 26 28 30 30 26 15 4 8 5 2 6 11 7 17 8 2 5 4 2 2 5 3 3 4 5 9 6 6 3 4 4 9 7 9 13 16 24 21 15 14 14 12 11 10
24 26 29 31 32 28 1 4 2 9 12 9 15 15 18 6 6 9 5 3 2 3 2 6 5 11 7 8 5 6 6 7 7 3 7 9 18 20 17 21 22 20 16 15 10
24 24 27 32 35 4 5 4 6 9 3 10 7 7 10 9 9 9 8 5 4 2 5 7 12 1 6 10 4 5 6 4 5 3 6 8 2 5 7 10 16 18 19 19 21
23 23 25 34 6 8 7 10 15 4 5 8 4 7 6 7 6 8 10 8 2 11 5 7 10 9 12 10 7 3 5 4 3 5 4 4 4 6 10 15 18 16 17 19 17
23 22 20 13 6 5 8 14 16 5 4 3 4 5 6 8 3 2 6 3 8 7 2 13 7 7 6 7 6 8 0 1 4 4 4 1 5 10 6 9 12 12 20 19 20
22 22 21 3 3 10 11 15 3 6 7 4 5 5 6 4 4 4 4 4 3 3 2 10 6 6 9 5 3 3 6 9 6 4 2 5 5 8 5 9 17 13 21 21 18
24 25 15 4 7 3 9 5 6 4 6 2 5 6 8 6 5 6 5 5 6 3 4 8 7 5 3 3 6 8 8 4 5 5 6 5 3 10 9 6 13 25 22 20 18
25 27 7 8 5 2 5 6 2 4 6 6 8 3 8 8 7 5 6 5 5 5 1 2 9 2 2 4 9 4 9 8 6 4 5 7 3 6 6 10 8 16 22 18 16
24 4 5 6 9 4 6 3 8 5 2 8 11 2 3 3 3 6 10 9 9 10 9 6 7 4 6 7 11 5 2 6 7 2 4 4 1 4 6 9 12 14 15 18 18
6 5 7 2 9 5 6 7 6 4 6 6 2 2 7 5 6 5 6 8 7 11 9 8 3 2 4 5 5 9 6 3 5 3 3 5 4 6 3 6 9 12 13 11 13
2 5 6 8 5 5 4 8 6 8 5 3 5 7 7 1 2 5 5 6 4 8 10 7 7 8 2 1 5 2 1 6 6 6 7 2 7 7 10 8 10 11 17 19 17
3 3 5 3 3 2 4 5 3 8 5 6 5 6 5 2 2 1 5 2 7 4 3 8 7 6 9 5 6 6 6 5 7 7 3 5 8 5 9 12 11 10 10 16 21
3 5 6 5 4 3 5 5 5 11 12 6 5 5 8 6 2 7 5 5 7 3 1 0 2 1 9 7 6 4 5 5 4 5 7 7 8 5 6 8 10 10 10 14 18
2 4 6 4 2 7 5 6 6 6 9 7 8 8 4 3 4 5 3 3 7 4 3 6 4 7 10 10 5 4 3 4 7 5 5 7 6 7 8 9 8 10 11 13 15
1 6 2 5 4 5 2 4 8 9 5 2 8 5 6 7 3 4 3 4 5 2 1 6 6 5 5 5 3 5 6 6 5 7 7 6 8 10 12 12 14 13 9 9 11
2 2 5 4 6 5 2 4 4 7 5 7 8 9 4 4 7 8 2 1 4 3 3 3 2 1 2 5 7 11 8 7 8 5 5 7 9 10 8 4 6 11 9 13 13
3 4 2 5 4 4 4 3 4 7 9 4 5 6 5 2 1 5 3 2 3 2 1 2 4 3 5 5 7 9 8 10 7 7 7 8 9 6 5 9 7 10 16 16 16
Wind_Direction
359 354 352 351 345 342 332 323 313 307 302 309 317 308 312 316 308 162 248 218 188 227 159 299 293 307 110 261 208 141 57 18 9 88 122 21 2 302 337 102 359 16 107 140 142
355 352 351 349 345 342 337 328 314 302 297 306 302 307 323 333 320 253 238 237 209 186 247 286 300 22 329 268 283 108 82 233 148 130 111 110 92 357 87 24 8 107 147 126 146
352 350 350 345 347 342 339 335 321 300 301 310 311 315 327 343 317 248 225 201 186 193 217 353 326 156 243 144 265 99 147 193 135 128 120 125 149 166 134 141 203 159 169 155 158
350 348 348 343 343 340 338 339 333 318 322 327 322 322 331 5 210 265 110 144 192 229 247 29 35 12 314 257 227 106 151 163 162 132 127 145 134 150 164 152 119 169 172 165 177
347 345 345 342 341 340 332 334 334 322 324 334 321 327 326 312 252 181 132 146 214 251 191 72 345 62 245 278 317 103 145 135 152 109 108 132 144 225 202 125 72 192 183 122 91
345 344 342 341 339 337 331 325 325 319 272 255 294 323 5 288 226 148 144 146 243 186 274 145 228 236 262 282 175 59 131 111 108 122 123 134 67 326 216 148 186 178 127 99 101
345 342 341 338 340 335 329 319 316 302 238 174 197 287 313 240 242 169 155 204 211 189 223 225 209 358 350 329 51 130 105 53 174 158 120 115 9 265 52 98 149 128 122 118 115
346 341 340 338 340 333 324 317 311 265 198 165 161 233 254 243 209 165 216 275 262 238 202 257 279 337 113 295 351 167 123 151 219 211 177 121 212 244 219 148 219 149 140 126 125
345 342 339 339 337 329 319 319 310 170 135 146 114 143 273 311 164 224 174 216 260 272 253 301 51 30 15 51 10 4 218 279 147 207 162 193 160 225 203 162 170 149 139 134 122
345 343 340 337 332 328 322 313 131 121 150 184 253 347 285 283 258 202 219 203 235 262 356 11 47 24 18 64 213 283 10 315 269 190 198 183 177 190 212 171 163 152 153 148 145
346 343 337 335 326 330 339 22 11 353 142 208 251 233 288 286 304 186 200 237 72 68 179 303 66 250 254 215 218 202 231 249 269 250 124 174 157 182 180 159 161 167 160 146 140
341 341 340 332 323 326 272 5 225 268 304 245 245 241 250 278 296 280 92 149 79 250 7 5 255 239 248 283 265 265 265 277 277 37 85 161 175 182 175 181 178 173 165 154 138
338 339 340 332 321 349 293 246 314 347 306 297 221 220 235 147 227 224 136 174 181 262 247 178 243 211 214 260 256 263 209 204 210 356 38 117 22 185 226 198 191 185 172 163 161
335 337 339 336 29 325 300 314 338 333 26 279 211 243 164 188 246 191 177 155 169 222 228 227 261 237 256 257 163 226 214 197 105 109 201 115 252 228 212 203 203 181 172 173 163
328 332 337 332 292 319 272 330 321 58 356 181 196 171 176 167 196 191 157 126 217 239 96 262 291 300 216 202 171 214 162 92 78 116 103 34 98 260 148 205 216 183 177 175 172
324 323 332 337 252 245 312 300 43 44 258 270 158 157 115 196 253 18 133 136 210 213 223 255 250 211 220 231 187 82 71 35 47 92 43 232 123 290 208 203 217 173 178 176 169
320 315 315 274 236 323 339 16 38 156 310 49 213 159 167 197 245 165 166 171 180 22 312 335 295 280 170 109 28 77 58 4 1 13 230 316 83 237 303 223 197 172 175 173 168
318 308 250 212 217 276 12 54 203 257 273 338 346 200 170 183 238 186 151 193 257 129 149 208 320 28 292 203 172 186 144 153 193 203 250 319 296 283 317 303 99 158 161 158 159
319 309 273 248 192 136 83 109 214 217 305 356 338 61 262 240 225 156 186 199 213 172 173 173 253 277 277 214 142 176 124 186 109 78 80 264 206 351 350 25 70 119 143 162 168
321 325 263 178 146 91 85 214 232 238 0 20 303 326 351 342 38 38 205 202 226 193 168 224 277 250 340 45 47 136 159 62 12 166 220 282 284 235 235 143 123 139 154 169 171
46 345 270 162 101 65 187 221 251 263 289 261 289 283 241 119 93 347 287 332 338 264 150 169 151 262 55 65 189 42 99 68 117 135 167 200 266 216 205 190 172 175 178 177 177
355 323 260 87 109 188 204 198 240 275 302 286 298 269 256 163 183 192 251 270 343 314 247 197 155 213 193 190 154 161 230 135 128 261 216 158 265 276 196 200 191 201 185 183 181
344 267 308 95 193 245 280 263 266 280 278 272 267 281 268 225 252 201 210 253 312 29 321 5 344 95 326 347 354 164 186 163 113 75 202 151 254 238 240 208 214 197 200 186 184
352 320 306 38 183 156 225 249 251 263 282 261 265 248 237 244 194 251 269 295 355 196 210 82 135 164 204 210 173 173 221 157 128 119 217 205 232 280 259 237 215 222 206 190 185
181 250 252 313 330 344 321 282 286 295 251 13 337 332 262 204 234 237 256 317 350 346 255 122 193 195 212 235 263 226 211 232 194 206 171 249 215 238 230 215 213 210 198 174 124
270 14 341 291 293 287 220 260 248 281 228 295 214 276 275 238 228 241 225 176 204 318 75 4 274 187 263 257 255 263 253 221 233 245 241 237 256 245 274 264 196 209 132 136 138
310 330 120 271 317 7 251 249 305 340 278 224 313 293 308 269 181 178 177 182 252 158 222 147 132 87 255 260 295 281 218 235 250 226 199 246 238 209 226 169 215 138 151 151 147